Total_Precipitation_Accumulation
0.00 0.00 0.00 0.01 0.01 0.01 0.01 0.02 0.02 0.03 0.05 0.08 0.13 0.16 0.27 0.39 0.49 0.52 0.50 0.51 0.52 0.71 0.88 1.11 1.45 1.81 2.33 2.39 2.33 2.46 2.67 2.79 2.89 3.18 3.29 3.45 3.77 3.99 4.17 4.27 4.19 4.11 3.95 4.00
0.00 0.00 0.00 0.00 0.01 0.02 0.02 0.03 0.04 0.07 0.08 0.12 0.19 0.24 0.32 0.42 0.49 0.49 0.54 0.63 0.68 0.85 1.11 1.30 1.51 1.98 2.44 2.65 2.72 2.76 2.98 3.26 3.52 3.74 4.08 4.41 4.71 4.94 5.10 5.14 4.70 4.46 4.32 4.26
0.00 0.00 0.00 0.01 0.01 0.01 0.02 0.03 0.06 0.09 0.08 0.11 0.20 0.38 0.49 0.51 0.52 0.62 0.81 0.94 1.04 1.12 1.35 1.45 1.65 2.04 2.41 2.61 2.76 2.89 3.15 3.58 4.12 4.46 4.87 5.31 5.51 5.57 5.38 5.13 5.00 4.83 4.68 4.57
0.00 0.00 0.00 0.01 0.01 0.01 0.01 0.01 0.04 0.05 0.06 0.12 0.19 0.42 0.72 0.76 0.78 0.97 1.11 1.02 1.07 1.24 1.45 1.63 1.83 2.08 2.40 2.58 2.70 3.02 3.54 4.15 4.70 5.14 5.69 6.20 6.33 6.15 5.86 5.44 5.04 4.77 4.50 4.20
0.00 0.00 0.01 0.01 0.01 0.01 0.01 0.01 0.02 0.03 0.03 0.09 0.14 0.33 0.84 1.02 1.04 1.24 1.46 1.21 1.13 1.13 1.24 1.46 1.67 1.86 2.16 2.31 2.54 2.93 3.54 4.25 4.96 5.75 6.40 6.79 6.72 6.40 6.01 5.38 4.80 4.28 3.90 3.59
0.01 0.01 0.01 0.01 0.01 0.01 0.01 0.01 0.02 0.03 0.04 0.09 0.12 0.31 0.87 1.26 1.41 1.55 1.45 1.24 1.11 1.07 1.05 1.07 1.17 1.38 1.60 1.92 2.27 2.70 3.32 4.06 4.73 5.37 5.88 6.04 5.96 5.79 5.32 4.64 4.06 3.69 3.35 3.01
0.03 0.03 0.02 0.01 0.01 0.01 0.01 0.03 0.11 0.16 0.20 0.19 0.16 0.38 0.90 1.26 1.45 1.37 1.25 1.20 1.05 0.97 0.93 0.88 0.88 1.07 1.34 1.56 1.91 2.36 2.81 3.39 3.85 4.24 4.65 4.79 4.80 4.64 4.37 3.93 3.52 3.14 2.66 2.31
0.11 0.08 0.04 0.02 0.02 0.02 0.02 0.03 0.15 0.29 0.29 0.33 0.38 0.68 1.15 1.24 1.29 1.22 1.13 1.08 0.97 0.92 0.90 0.90 0.95 1.06 1.25 1.45 1.67 1.87 2.15 2.51 2.66 2.72 2.94 3.15 3.19 3.19 3.11 2.86 2.62 2.36 2.03 1.70
0.20 0.13 0.06 0.03 0.02 0.02 0.02 0.03 0.07 0.13 0.16 0.36 0.66 1.03 1.49 1.41 1.31 1.27 1.26 1.09 0.95 0.87 0.85 0.88 0.91 0.94 1.00 1.12 1.20 1.28 1.40 1.56 1.63 1.70 1.74 1.83 1.91 1.94 1.90 1.79 1.62 1.45 1.29 1.09
0.19 0.16 0.07 0.04 0.03 0.04 0.05 0.07 0.09 0.16 0.34 0.56 0.81 1.25 1.83 1.93 1.60 1.31 1.12 0.93 0.79 0.77 0.79 0.81 0.81 0.82 0.84 0.84 0.88 0.92 0.96 1.05 1.14 1.20 1.19 1.21 1.23 1.20 1.12 1.05 1.01 0.93 0.83 0.75
0.19 0.19 0.10 0.06 0.08 0.10 0.09 0.11 0.15 0.20 0.25 0.53 0.91 1.56 1.83 2.07 2.01 1.51 1.15 1.03 0.93 0.84 0.78 0.80 0.80 0.71 0.68 0.68 0.70 0.75 0.78 0.80 0.83 0.87 0.89 0.90 0.86 0.82 0.79 0.75 0.71 0.66 0.59 0.51
0.21 0.27 0.25 0.17 0.13 0.12 0.11 0.14 0.21 0.40 0.43 0.44 0.87 1.74 1.89 2.17 2.22 1.85 1.51 1.41 1.34 1.05 0.90 0.87 0.80 0.69 0.63 0.63 0.62 0.63 0.65 0.67 0.71 0.66 0.66 0.69 0.64 0.57 0.55 0.53 0.47 0.43 0.41 0.37
0.19 0.35 0.60 0.57 0.42 0.24 0.17 0.17 0.20 0.26 0.40 0.55 0.99 1.88 2.15 2.12 2.14 1.96 1.68 1.57 1.65 1.52 1.30 1.10 0.93 0.81 0.73 0.67 0.59 0.56 0.52 0.51 0.55 0.54 0.51 0.53 0.52 0.49 0.45 0.40 0.35 0.31 0.32 0.33
0.15 0.37 0.82 1.09 0.79 0.47 0.32 0.23 0.20 0.27 0.52 0.66 0.98 1.57 1.95 2.04 2.07 2.04 2.03 2.00 1.96 1.75 1.51 1.27 1.04 0.91 0.83 0.75 0.66 0.60 0.55 0.48 0.45 0.47 0.47 0.45 0.42 0.40 0.39 0.35 0.33 0.31 0.27 0.25
0.25 0.57 0.62 0.54 0.46 0.42 0.35 0.31 0.29 0.30 0.36 0.65 1.01 1.36 1.76 1.95 1.99 2.15 2.29 2.19 1.89 1.59 1.42 1.32 1.18 1.06 0.95 0.84 0.75 0.65 0.56 0.50 0.44 0.46 0.49 0.47 0.40 0.35 0.33 0.32 0.30 0.29 0.26 0.22
0.30 0.53 0.53 0.48 0.37 0.42 0.42 0.43 0.45 0.43 0.48 0.73 1.07 1.57 1.88 2.04 2.12 2.15 2.14 2.10 1.96 1.71 1.53 1.40 1.27 1.15 1.03 0.90 0.83 0.78 0.72 0.66 0.56 0.52 0.55 0.52 0.46 0.39 0.35 0.29 0.25 0.24 0.21 0.18
0.28 0.46 0.72 0.69 0.42 0.58 0.88 0.73 0.61 0.63 0.68 0.85 1.13 1.41 1.56 1.68 1.86 2.05 2.10 2.01 1.97 1.80 1.63 1.49 1.41 1.32 1.22 1.11 1.02 0.93 0.79 0.66 0.57 0.51 0.48 0.47 0.42 0.36 0.32 0.25 0.23 0.23 0.24 0.22
0.23 0.44 0.63 0.63 0.73 1.15 1.02 0.65 0.58 0.70 0.76 0.76 0.88 0.99 1.19 1.33 1.50 1.74 1.93 1.98 2.00 1.87 1.77 1.67 1.52 1.38 1.29 1.16 0.98 0.78 0.62 0.53 0.46 0.42 0.38 0.33 0.30 0.29 0.26 0.24 0.23 0.25 0.26 0.25
0.14 0.33 0.59 0.70 0.97 1.14 1.00 0.62 0.54 0.80 0.98 0.73 0.74 0.76 0.80 0.89 1.07 1.48 1.62 1.68 1.77 1.75 1.66 1.60 1.48 1.34 1.16 0.97 0.76 0.61 0.51 0.46 0.40 0.38 0.35 0.30 0.25 0.25 0.26 0.26 0.26 0.28 0.28 0.27
0.16 0.29 0.57 0.75 1.07 1.31 1.19 0.53 0.33 0.59 1.20 0.90 0.77 0.80 0.80 0.94 1.12 1.15 1.17 1.18 1.24 1.34 1.36 1.34 1.23 1.07 0.91 0.75 0.59 0.54 0.49 0.45 0.40 0.34 0.31 0.25 0.23 0.24 0.24 0.26 0.28 0.27 0.28 0.26
0.38 0.46 0.68 0.84 1.08 1.17 0.64 0.35 0.45 1.03 1.30 0.96 0.75 0.80 0.96 1.13 1.05 0.79 0.70 0.82 0.94 1.02 1.07 1.07 1.00 0.89 0.76 0.61 0.56 0.58 0.54 0.47 0.35 0.28 0.28 0.27 0.24 0.22 0.21 0.25 0.29 0.28 0.26 0.28
0.52 0.67 0.81 0.89 1.12 1.15 0.48 0.40 0.71 0.85 0.70 0.61 0.59 0.62 0.63 0.62 0.58 0.53 0.51 0.62 0.72 0.83 0.86 0.85 0.83 0.76 0.67 0.59 0.58 0.58 0.53 0.38 0.30 0.32 0.36 0.34 0.29 0.19 0.18 0.26 0.30 0.27 0.26 0.29
0.46 0.60 0.69 0.83 1.00 0.76 0.38 0.36 0.39 0.39 0.47 0.47 0.50 0.52 0.42 0.41 0.45 0.45 0.45 0.55 0.66 0.69 0.67 0.65 0.64 0.61 0.60 0.57 0.59 0.56 0.46 0.32 0.29 0.35 0.37 0.33 0.25 0.21 0.20 0.24 0.26 0.24 0.24 0.23
0.43 0.30 0.40 0.55 0.59 0.43 0.34 0.30 0.31 0.34 0.36 0.37 0.40 0.40 0.38 0.34 0.31 0.32 0.40 0.52 0.58 0.56 0.52 0.53 0.56 0.57 0.56 0.54 0.54 0.50 0.41 0.37 0.40 0.44 0.38 0.30 0.26 0.22 0.19 0.18 0.16 0.16 0.17 0.16
0.44 0.28 0.38 0.53 0.54 0.43 0.40 0.33 0.31 0.34 0.34 0.32 0.34 0.38 0.33 0.27 0.26 0.27 0.35 0.39 0.43 0.47 0.47 0.51 0.60 0.60 0.51 0.45 0.42 0.36 0.35 0.37 0.43 0.42 0.34 0.29 0.24 0.19 0.17 0.14 0.10 0.10 0.09 0.07
0.33 0.34 0.38 0.50 0.46 0.44 0.45 0.30 0.25 0.33 0.41 0.42 0.40 0.34 0.29 0.26 0.23 0.23 0.30 0.33 0.35 0.40 0.46 0.54 0.54 0.48 0.38 0.34 0.33 0.25 0.24 0.27 0.32 0.30 0.26 0.21 0.16 0.14 0.12 0.12 0.10 0.04 0.03 0.03